Location: Gokavaram
(16.9752°N, 81.0696°E)
Time: 21:33:16
(UTC+00:00)

Cosmos 2251 Rocket - Pass Details

Date: 15 May 2026
Orbit: 760 x 788 km, 74.0° (Epoch: 10 June)

Event Time Altitude Azimuth Distance (km) Brightness Sun altitude
Rises 13:24:25 0° 352° (N) 3,272 7.2 -6.3°
Reaches altitude 10° 13:26:51 10° 356° (N) 2,341 6.4 -6.8°
Maximum altitude 13:32:06 60° 76° (ENE) 895 3.6 -8.0°
Drops below altitude 10° 13:37:18 10° 155° (SSE) 2,324 5.6 -9.1°
Enters shadow 13:39:26 - 159° (SSE) 3,139 6.3 -9.6°
